Temperature
14 14 15 14 14 14 14 15 15 15 15 15 15 15 15 15 14 14 14 14 14 14 14 14 14 14 14 14 14 14 14 14 14 14 14 14 14 14
14 14 14 14 14 14 14 14 14 14 14 15 15 14 14 14 14 14 14 14 14 14 13 13 13 13 13 14 14 14 14 14 14 14 14 14 14 14
15 15 15 14 14 14 14 14 14 14 14 14 14 14 14 14 14 14 14 14 13 13 13 13 13 13 13 13 13 13 13 13 14 14 14 14 14 14
15 15 15 15 15 14 14 14 14 14 14 14 15 14 14 14 14 14 14 14 13 13 13 13 13 13 13 13 13 13 13 13 13 13 13 13 14 14
15 15 15 15 15 15 15 14 14 14 14 14 14 14 14 14 14 14 14 14 14 13 13 13 13 13 13 13 13 13 13 13 13 13 13 13 13 13
15 15 15 15 15 15 15 15 14 14 14 14 14 14 14 14 14 14 14 14 14 13 13 13 13 13 13 13 13 13 13 13 13 13 13 13 13 13
15 15 15 15 15 15 15 14 14 14 14 14 14 14 14 14 14 14 13 14 14 13 13 13 13 13 13 13 13 13 13 13 12 12 12 12 12 12
15 15 15 15 15 14 14 14 14 14 14 14 14 14 14 14 14 13 13 13 13 14 13 13 13 13 13 13 13 13 13 13 12 12 12 12 12 12
15 15 15 15 14 14 14 14 14 14 14 13 13 14 14 14 13 13 13 13 13 13 13 13 13 13 13 13 13 13 13 13 12 12 12 12 12 12
14 14 14 14 14 14 14 14 14 14 13 13 13 13 13 13 13 13 12 12 12 13 12 12 13 13 13 13 13 13 13 12 12 12 12 12 12 12
14 14 14 14 13 13 13 13 13 13 13 13 13 13 13 13 12 12 12 12 12 13 13 12 13 13 13 13 13 13 13 13 12 12 12 12 12 12
13 13 13 13 13 12 12 12 12 13 12 12 12 12 12 12 12 12 12 12 11 12 12 12 12 12 12 13 13 13 13 12 12 12 12 12 12 12
12 12 12 12 12 12 11 11 11 11 11 11 11 12 12 12 12 12 12 11 11 11 12 11 11 11 11 11 12 12 12 12 12 12 12 12 12 12
11 11 11 11 11 11 11 10 10 10 10 10 10 11 11 11 11 11 11 11 11 11 11 11 11 11 11 10 11 11 12 12 12 12 12 12 12 12
10 10 10 10 10 10 10 10 10 10 9 9 9 9 9 10 10 10 10 10 10 10 10 10 10 10 10 10 10 11 11 11 11 11 12 12 12 11
9 9 9 9 9 9 9 9 9 8 8 8 8 8 8 9 9 9 9 9 10 10 10 10 10 10 10 10 10 10 10 11 11 11 11 11 11 11
8 8 8 8 8 8 8 8 8 8 8 8 8 8 8 8 8 8 8 8 8 9 9 10 10 9 9 9 10 10 10 10 11 11 11 11 11 11
7 7 7 7 7 6 6 6 7 7 7 7 7 7 7 7 7 8 8 8 8 8 8 9 9 9 9 9 9 9 10 10 10 10 10 10 10 11
6 6 6 6 5 5 5 5 5 5 6 6 6 6 6 6 6 6 6 7 7 7 8 8 8 8 8 8 9 9 9 10 10 10 10 10 10 11
5 5 5 4 4 4 4 4 4 4 5 5 5 5 5 5 5 5 6 6 6 7 7 7 8 8 7 8 8 9 9 9 9 9 9 10 10 10
4 4 4 4 3 3 3 3 3 4 4 4 4 4 4 4 5 5 5 5 6 6 6 7 7 7 7 7 7 8 9 9 9 9 9 9 9 9
3 3 3 3 3 3 3 3 3 3 3 3 3 3 4 4 4 4 4 5 5 5 6 6 7 7 7 7 7 7 8 8 9 9 9 9 9 9
2 2 2 2 2 2 2 2 2 2 3 3 3 3 3 3 4 4 4 4 5 5 5 6 6 6 6 7 7 7 7 8 8 8 9 9 9 9
Wind_Speed
3 2 2 1 1 1 2 4 4 1 2 3 2 2 4 8 10 11 10 12 12 12 12 12 12 12 12 12 11 11 11 12 12 13 13 15 16 17
3 3 2 2 1 1 1 2 3 4 3 3 3 3 3 5 10 12 13 13 14 15 15 16 16 16 15 14 14 14 13 13 13 14 14 14 15 16
5 5 6 4 3 2 1 2 2 3 3 4 3 3 2 4 5 10 12 12 13 15 17 18 19 19 19 18 18 17 16 16 15 15 15 15 16 16
7 6 7 5 5 4 3 3 3 3 4 5 3 3 4 5 5 5 8 11 13 15 17 19 19 20 21 21 20 20 19 18 17 17 17 17 16 16
8 8 8 7 6 5 5 5 4 4 4 4 5 3 4 4 4 5 5 6 10 13 15 17 18 19 20 21 22 22 22 21 20 20 19 19 19 18
8 8 8 8 9 8 7 7 6 5 5 5 5 5 5 5 3 4 5 5 6 8 11 13 14 16 17 20 21 22 23 23 23 22 22 21 21 20
8 8 9 11 12 10 8 8 7 6 6 6 6 5 5 4 5 4 5 6 5 5 5 6 6 7 11 16 18 21 23 24 24 24 24 24 23 23
8 8 8 9 12 14 15 13 11 9 9 7 7 8 9 7 6 5 5 4 6 4 4 6 4 6 7 12 17 20 22 24 24 25 25 25 25 25
8 7 8 8 8 7 10 13 13 15 14 10 10 11 10 8 7 7 7 8 8 6 4 6 5 7 8 14 19 21 23 24 24 24 25 25 26 26
6 6 6 7 5 5 6 7 8 9 11 10 11 12 12 10 9 10 9 8 7 6 5 7 7 7 8 11 19 22 24 24 24 24 24 24 25 26
4 4 4 4 5 4 4 6 8 9 11 14 15 16 18 18 12 6 6 6 8 7 6 6 7 7 7 8 14 21 23 24 24 24 23 23 24 23
3 2 2 3 5 5 4 6 9 10 8 9 9 12 13 14 16 12 10 10 8 7 6 7 7 5 5 6 8 10 13 18 22 23 23 23 22 13
3 3 3 6 8 8 7 7 11 10 8 8 8 9 8 8 9 9 10 11 12 10 7 6 6 6 7 6 5 6 7 7 9 12 18 21 20 14
3 3 4 8 9 10 8 10 13 10 6 6 7 8 8 9 9 9 10 12 13 14 11 9 8 8 8 8 7 6 6 7 7 8 8 13 16 19
3 6 9 10 10 8 10 12 10 5 4 5 7 8 8 8 8 8 8 9 10 14 15 12 11 10 9 11 10 8 7 6 7 8 8 8 8 7
4 6 9 9 7 7 8 7 4 4 4 5 6 6 6 6 7 7 8 8 8 10 10 13 12 13 12 13 12 11 10 7 6 8 8 8 7 7
4 3 3 4 5 5 5 5 5 5 5 5 6 7 7 7 7 7 7 7 8 10 10 8 8 10 12 11 11 13 12 11 10 9 7 8 9 9
3 3 4 4 5 5 6 6 5 5 5 6 6 6 7 8 8 7 7 8 9 10 10 9 7 6 6 9 14 13 11 11 10 9 8 9 11 9
3 3 4 4 5 5 5 5 6 6 6 6 6 7 7 8 8 8 8 8 9 9 10 8 7 8 10 12 9 14 13 11 9 9 10 10 11 10
3 4 5 5 5 5 5 5 6 7 6 6 7 7 7 8 8 9 9 9 10 10 10 8 8 9 11 12 9 7 14 12 9 10 10 8 9 10
5 5 5 5 5 6 6 6 6 7 7 8 8 8 8 8 8 9 9 12 11 9 10 10 10 12 9 6 7 7 7 13 13 9 8 7 7 6
5 5 5 6 6 6 6 6 7 7 8 8 8 8 8 8 9 11 10 10 9 9 10 10 8 6 5 7 10 9 8 7 10 16 15 12 8 7
5 6 6 6 6 6 7 7 9 8 8 9 9 9 9 9 9 10 10 10 10 10 9 8 7 5 6 7 8 8 9 8 6 6 9 14 18 19
Wind_Direction
190 183 191 209 145 149 151 150 145 153 290 294 306 286 228 213 212 209 220 227 233 239 245 250 253 254 254 254 254 255 257 259 258 256 257 256 253 251
195 191 205 215 202 144 142 149 152 160 214 264 263 268 240 230 228 222 231 238 241 245 251 255 257 257 255 254 254 254 255 256 258 256 255 256 256 255
207 204 220 217 213 215 181 161 163 159 200 267 266 270 243 249 246 240 246 247 249 251 255 259 260 259 256 255 254 254 254 255 256 257 257 258 257 256
217 213 224 221 220 223 213 213 208 193 193 245 273 273 258 252 247 248 251 250 248 255 257 260 262 260 256 254 253 253 253 254 254 255 255 256 256 256
215 215 222 213 221 223 220 221 225 220 200 220 257 260 266 265 266 267 261 258 258 259 260 261 263 262 258 254 253 252 253 254 254 254 253 253 253 254
219 218 219 212 217 219 223 224 223 227 223 229 250 261 263 268 253 263 278 267 263 264 264 265 264 266 262 258 256 255 255 254 254 254 253 253 252 252
230 228 227 223 221 218 221 220 218 225 230 236 249 257 258 257 249 243 254 269 270 252 260 265 260 261 264 262 259 257 255 255 254 254 253 252 250 249
231 238 242 239 237 233 233 227 216 220 227 231 241 242 252 243 242 239 241 254 272 252 224 259 239 252 254 255 256 255 255 254 254 253 253 251 249 248
228 233 247 249 242 245 249 248 240 234 227 226 236 245 248 240 232 240 236 234 245 241 215 260 250 254 253 255 254 254 255 256 255 254 253 251 249 247
236 233 237 253 258 253 258 262 259 254 245 238 239 248 247 243 231 237 243 248 252 248 207 247 255 251 257 253 255 254 255 255 255 255 253 250 248 246
264 256 245 253 277 274 266 271 275 274 268 256 249 252 254 253 245 242 244 244 260 258 212 223 253 257 257 257 257 254 253 254 254 253 253 251 248 246
296 292 261 271 292 294 270 267 274 278 283 286 274 267 261 259 251 236 237 243 251 258 229 216 242 240 263 255 251 251 251 253 251 250 250 250 248 238
307 301 299 310 303 300 283 259 262 273 281 274 275 274 270 263 256 242 233 235 243 247 232 207 229 226 232 257 262 247 236 242 246 247 248 246 243 224
296 298 300 309 305 300 289 273 275 279 269 270 272 272 270 269 266 257 246 241 242 247 246 225 232 234 240 251 257 258 246 238 232 237 237 242 242 233
299 305 309 308 307 301 293 292 293 280 270 272 273 273 271 272 275 274 269 260 255 254 254 241 238 242 238 247 252 248 252 249 230 233 235 229 229 219
330 319 316 314 312 303 306 310 304 286 280 277 281 280 284 284 282 277 276 274 272 269 257 248 241 240 245 244 247 251 243 240 236 232 233 235 229 218
331 338 345 344 340 333 325 318 314 314 305 295 294 294 293 290 287 283 274 274 270 274 277 265 248 242 240 241 246 247 247 245 241 234 228 242 244 231
22 351 334 328 323 319 318 316 313 311 306 302 300 297 296 295 293 291 284 278 275 274 273 271 266 265 262 251 233 243 244 244 241 229 221 234 250 244
20 331 317 313 312 313 312 312 313 311 308 306 303 301 298 296 293 291 288 283 279 276 273 268 259 254 264 270 250 220 231 239 238 235 230 229 241 246
352 331 323 319 314 311 311 312 310 310 307 303 300 298 294 292 292 291 288 283 282 281 279 272 259 250 252 262 265 247 222 227 231 236 238 234 241 249
339 331 324 319 316 312 311 310 308 305 302 301 297 294 294 294 293 292 292 289 283 280 278 275 267 258 256 256 260 258 244 224 223 228 227 229 238 240
326 323 320 319 317 313 310 309 308 305 303 300 298 297 295 293 292 292 291 291 287 283 280 279 278 272 251 252 259 264 265 258 240 233 228 218 215 221
324 322 318 316 313 312 311 309 307 304 302 301 300 298 297 295 293 291 289 288 288 290 290 288 284 270 261 257 261 264 264 264 257 248 247 238 233 239
Height
1551 1552 1553 1553 1554 1554 1554 1555 1555 1555 1555 1554 1554 1555 1555 1555 1554 1554 1553 1552 1551 1550 1550 1549 1549 1549 1549 1549 1550 1550 1551 1551 1552 1553 1553 1554 1555 1557
1549 1550 1551 1552 1552 1553 1553 1553 1553 1553 1553 1553 1553 1553 1552 1552 1552 1551 1551 1550 1549 1548 1547 1546 1546 1546 1545 1545 1546 1546 1546 1546 1547 1547 1548 1549 1550 1550
1547 1548 1549 1550 1550 1551 1551 1551 1551 1551 1550 1550 1550 1550 1550 1549 1549 1549 1548 1547 1546 1545 1544 1543 1542 1542 1542 1542 1541 1541 1541 1541 1541 1542 1542 1543 1543 1544
1545 1545 1546 1547 1548 1548 1548 1548 1548 1548 1548 1547 1547 1547 1546 1546 1545 1545 1544 1543 1542 1541 1540 1539 1539 1538 1538 1538 1537 1537 1537 1536 1536 1536 1536 1537 1537 1538
1542 1543 1544 1544 1545 1545 1546 1545 1545 1545 1545 1544 1543 1543 1542 1542 1541 1540 1540 1539 1538 1537 1536 1535 1535 1534 1533 1533 1533 1532 1532 1531 1531 1531 1531 1531 1531 1531
1539 1540 1540 1541 1541 1542 1542 1542 1542 1542 1541 1540 1539 1538 1538 1538 1537 1536 1535 1534 1533 1533 1532 1531 1530 1529 1529 1528 1528 1527 1527 1526 1526 1525 1525 1525 1525 1525
1535 1536 1537 1537 1538 1538 1538 1538 1538 1537 1536 1535 1534 1533 1532 1532 1532 1531 1529 1528 1527 1527 1526 1525 1524 1523 1523 1522 1522 1521 1521 1521 1520 1520 1520 1519 1519 1519
1530 1531 1532 1533 1533 1533 1533 1533 1533 1532 1531 1530 1529 1528 1526 1526 1526 1525 1524 1522 1520 1521 1520 1518 1518 1516 1516 1515 1515 1515 1514 1514 1514 1514 1513 1513 1513 1513
1525 1526 1527 1527 1528 1527 1527 1527 1526 1526 1525 1525 1523 1521 1521 1520 1520 1518 1517 1515 1513 1513 1513 1509 1510 1508 1509 1508 1507 1507 1506 1506 1506 1506 1506 1506 1506 1506
1520 1520 1520 1521 1521 1521 1520 1519 1518 1518 1518 1517 1515 1514 1514 1513 1513 1511 1509 1507 1505 1505 1505 1502 1501 1500 1500 1499 1499 1499 1498 1498 1498 1498 1498 1499 1499 1499
1514 1514 1514 1514 1514 1513 1513 1511 1510 1509 1509 1508 1507 1506 1506 1505 1505 1503 1501 1499 1495 1495 1497 1494 1492 1491 1490 1490 1490 1490 1490 1490 1490 1490 1490 1491 1491 1491
1508 1508 1507 1507 1506 1506 1505 1503 1502 1501 1500 1499 1498 1497 1496 1495 1495 1494 1492 1490 1486 1485 1486 1486 1483 1483 1480 1480 1481 1481 1481 1481 1481 1482 1482 1482 1483 1483
1501 1501 1501 1500 1499 1498 1497 1496 1494 1492 1491 1489 1488 1486 1486 1485 1484 1483 1482 1480 1478 1475 1477 1477 1474 1474 1472 1470 1470 1471 1472 1472 1472 1472 1473 1474 1475 1475
1496 1495 1494 1493 1492 1491 1490 1488 1487 1485 1483 1481 1479 1477 1476 1475 1474 1473 1472 1470 1468 1467 1467 1467 1465 1464 1463 1460 1460 1460 1461 1462 1462 1462 1463 1464 1465 1465
1491 1490 1489 1487 1486 1484 1483 1481 1479 1477 1475 1472 1470 1469 1467 1466 1464 1463 1461 1460 1458 1457 1456 1456 1455 1454 1453 1451 1450 1450 1450 1451 1452 1453 1453 1454 1455 1455
1487 1485 1483 1482 1480 1478 1477 1475 1472 1470 1468 1466 1463 1461 1459 1457 1455 1454 1452 1449 1447 1445 1445 1445 1444 1443 1441 1440 1440 1439 1440 1440 1441 1442 1443 1443 1444 1445
1482 1480 1478 1477 1475 1473 1471 1469 1467 1464 1462 1459 1457 1454 1451 1449 1447 1445 1443 1440 1438 1434 1433 1433 1433 1432 1431 1430 1428 1428 1428 1428 1429 1431 1432 1432 1433 1434
1478 1475 1474 1472 1470 1467 1465 1463 1460 1458 1455 1453 1450 1447 1444 1442 1439 1437 1435 1432 1429 1426 1424 1423 1423 1421 1419 1417 1418 1417 1417 1417 1418 1419 1420 1421 1421 1423
1474 1471 1469 1467 1465 1463 1460 1458 1455 1452 1450 1447 1444 1441 1438 1435 1432 1429 1426 1423 1420 1418 1416 1414 1413 1412 1409 1406 1404 1407 1406 1406 1407 1408 1409 1410 1410 1412
1470 1467 1465 1463 1460 1457 1455 1452 1449 1446 1443 1441 1438 1435 1431 1428 1425 1421 1418 1415 1412 1409 1406 1405 1404 1402 1400 1398 1395 1394 1396 1397 1397 1397 1398 1399 1401 1402
1465 1463 1461 1458 1455 1452 1449 1446 1443 1439 1437 1434 1431 1428 1424 1421 1417 1414 1411 1408 1405 1401 1398 1395 1394 1393 1391 1389 1386 1384 1385 1387 1388 1388 1389 1390 1391 1392
1462 1459 1456 1453 1450 1447 1443 1440 1437 1433 1430 1427 1424 1420 1417 1414 1410 1407 1404 1400 1397 1394 1390 1388 1386 1384 1383 1380 1378 1377 1377 1377 1378 1379 1380 1381 1381 1381
1458 1455 1452 1448 1445 1442 1438 1435 1431 1428 1424 1421 1417 1413 1410 1406 1403 1399 1396 1393 1390 1386 1383 1380 1378 1376 1374 1373 1371 1370 1369 1369 1370 1370 1370 1371 1373 1374